Theta_e
317 311 309 306 296 292 288 290 295 293 293 297 298 296 295 295 296 292 309 322 326 333 340 347 350 353 354 353 353 351 350 348 348 347 346 345 345 345 346 348 349 348 345 343 342 341 337 335 333
313 312 305 298 290 286 288 290 292 294 296 297 298 297 296 296 301 307 314 321 332 336 341 346 348 352 353 353 352 350 350 349 347 347 346 345 345 344 348 349 347 345 342 341 340 337 335 331 330
311 307 299 293 287 286 288 291 292 296 297 297 295 298 298 297 303 307 313 320 333 336 341 345 347 352 353 352 352 351 350 350 348 347 347 348 346 345 347 348 346 343 341 340 338 334 331 328 326
306 303 297 290 289 289 293 294 293 295 297 298 296 295 298 301 303 310 318 325 331 334 339 342 348 352 353 352 351 350 349 349 349 348 348 349 346 347 347 346 344 342 339 336 335 332 327 324 321
301 296 290 288 288 291 295 294 295 294 294 295 296 294 296 301 310 316 319 326 329 332 336 339 346 350 351 351 351 351 350 349 350 350 349 347 346 345 344 344 341 338 334 333 332 329 324 321 318
298 294 288 286 288 292 293 294 294 293 292 294 298 297 295 302 308 313 318 318 328 331 334 338 339 343 347 349 350 350 350 350 350 351 350 349 346 345 340 337 338 335 333 330 330 326 322 319 315
295 290 287 286 287 290 294 296 298 292 292 293 298 297 298 300 304 307 316 315 319 329 332 335 339 340 338 342 344 345 347 348 348 349 348 346 345 342 340 338 336 335 333 331 330 324 321 317 312
296 292 288 287 287 288 295 295 294 293 293 298 297 294 296 301 303 307 310 313 313 320 330 333 336 340 340 341 336 338 341 342 344 343 341 338 337 337 335 333 335 335 333 331 330 324 320 317 311
296 288 286 288 288 291 295 295 295 295 293 294 296 301 297 302 304 306 305 308 310 316 323 329 332 336 340 340 336 334 336 337 338 337 334 332 334 332 328 327 332 335 334 331 329 324 321 316 309
293 286 288 292 293 292 295 293 295 295 295 292 293 298 297 300 303 302 301 302 304 307 314 321 328 332 335 339 335 333 337 339 339 339 337 334 331 330 327 323 327 331 331 331 329 324 321 309 296
293 289 293 296 296 296 295 294 295 292 292 295 294 297 297 297 295 295 295 295 296 302 307 315 322 327 330 336 333 329 329 331 335 336 335 332 328 326 324 324 324 322 321 318 321 315 307 299 292
294 296 295 298 298 296 294 296 295 294 297 298 296 295 294 294 295 295 295 295 295 296 297 299 306 322 326 328 333 331 328 328 328 331 330 328 326 325 322 322 321 320 318 312 310 307 304 299 297
293 295 297 299 297 296 296 295 293 295 298 296 296 296 294 293 293 294 295 295 295 295 296 297 298 314 323 325 325 326 332 331 333 327 327 326 323 324 322 320 319 318 314 310 306 305 303 298 294
294 295 295 296 296 294 294 292 293 296 296 294 295 292 292 292 292 292 293 293 293 295 295 297 299 301 319 323 321 323 324 333 329 324 324 323 322 320 320 318 317 315 313 310 306 304 301 297 293
294 292 293 293 293 293 294 290 292 297 294 292 291 290 291 292 292 291 292 292 292 293 294 296 299 302 313 318 319 320 320 321 322 322 322 322 321 321 319 318 315 315 312 309 305 301 298 294 292
290 288 285 291 293 293 292 288 294 295 292 290 289 288 289 291 291 291 292 292 292 292 293 295 298 299 307 314 316 318 318 318 318 319 321 324 323 322 318 316 314 314 311 309 305 300 297 294 291
286 282 284 289 293 292 290 288 294 295 292 289 288 289 289 289 290 291 291 291 291 292 292 293 295 296 301 309 312 313 313 313 315 318 319 321 323 321 319 315 314 312 310 308 306 299 298 293 290
283 283 285 285 290 290 288 289 292 294 293 288 287 287 288 288 289 290 290 291 291 291 292 292 294 294 298 303 306 305 304 303 309 309 309 315 318 316 316 314 312 310 309 304 302 300 295 294 291
285 285 285 286 291 288 289 288 292 293 290 287 287 287 287 288 289 289 289 289 289 290 291 291 291 292 294 295 298 300 297 297 297 299 299 302 307 311 311 311 310 308 308 305 302 297 295 293 291
286 284 284 288 291 289 289 289 290 289 289 288 288 287 287 286 286 287 287 286 286 287 289 290 290 291 291 292 293 295 294 294 293 295 295 295 296 298 303 305 305 304 303 301 299 296 294 293 291
286 285 285 287 288 287 286 285 287 288 289 289 288 288 287 285 285 285 285 284 284 284 285 288 288 289 290 291 292 292 291 290 290 290 291 291 292 292 294 295 300 301 301 300 298 296 295 294 291
285 290 289 288 285 281 285 279 284 286 285 286 286 284 284 285 285 285 284 283 283 283 284 285 286 286 288 289 289 288 287 286 287 287 288 289 289 289 290 291 292 293 297 297 297 297 294 293 292
289 289 288 285 283 281 282 279 282 285 283 284 284 284 284 284 284 284 283 284 283 283 282 283 284 284 284 284 285 285 283 284 284 284 284 285 286 286 286 287 288 288 289 290 293 294 294 293 292
290 287 286 284 282 277 282 282 280 283 285 284 285 284 285 284 284 284 284 284 282 282 282 282 283 283 283 283 283 282 281 281 281 281 281 282 283 284 284 285 285 286 286 287 288 289 291 292 292
286 285 279 277 275 277 282 279 283 284 285 286 285 284 284 284 283 283 282 281 281 280 281 282 282 282 282 282 282 281 280 280 280 280 280 280 281 281 282 283 283 283 284 284 285 285 286 287 288
285 286 280 274 273 276 281 279 283 283 285 287 286 285 284 283 284 283 283 282 281 280 280 281 281 281 281 281 281 280 280 280 280 279 279 280 280 280 281 281 281 281 282 282 282 282 282 283 283
285 283 286 280 269 273 280 281 283 284 282 283 284 284 283 284 284 283 283 282 281 280 280 279 280 280 281 281 280 280 280 279 279 279 279 278 279 281 280 279 279 280 280 280 280 280 279 280 281
287 290 282 280 272 271 277 278 280 280 281 282 282 283 283 284 284 283 282 282 282 281 280 280 280 279 280 280 280 280 280 280 279 278 278 278 278 278 279 278 278 279 279 280 280 279 279 279 279
285 284 284 284 280 273 269 277 283 284 284 283 283 284 283 283 282 283 281 282 281 281 280 280 280 280 280 280 280 279 279 279 279 278 278 278 278 278 279 279 279 278 278 278 278 278 278 278 278
285 285 285 281 277 277 277 279 286 285 286 285 284 285 284 283 283 282 281 280 280 280 280 280 281 280 280 280 279 280 279 278 278 278 278 278 278 278 278 279 278 278 278 278 277 277 277 277 277
Wind_Speed
6 5 2 5 6 6 2 1 2 2 2 1 1 2 2 2 3 4 4 8 3 8 12 11 13 14 13 12 12 11 11 11 10 9 8 7 6 6 5 5 9 10 9 7 6 6 6 6 6
3 1 5 3 7 4 5 4 1 1 2 2 1 2 2 2 2 3 1 7 7 8 11 11 12 14 13 12 12 12 12 11 10 10 9 7 6 5 5 9 9 8 5 5 5 5 6 6 6
0 4 5 5 4 4 4 3 2 2 3 2 2 1 2 2 2 2 5 7 6 7 9 11 13 14 14 13 13 12 11 11 12 10 9 9 8 6 5 9 9 7 4 4 5 5 5 5 6
3 6 5 6 2 2 2 2 3 1 2 4 2 2 3 3 2 2 4 6 6 5 6 9 15 15 14 13 12 13 13 12 11 10 10 10 8 6 11 10 9 9 6 4 3 4 4 4 5
5 4 5 4 3 4 2 2 4 2 1 2 2 4 5 3 1 2 5 5 7 6 5 6 13 14 14 14 14 13 13 13 12 12 12 10 10 8 8 7 4 3 2 1 1 2 2 4 5
5 4 5 1 2 4 3 1 1 2 2 4 2 3 5 4 3 1 3 5 5 6 5 5 10 11 12 14 14 13 13 12 11 11 12 12 13 11 8 4 6 5 4 3 2 1 2 3 4
6 5 3 2 3 4 3 6 2 2 1 1 1 3 5 5 6 5 4 3 5 5 6 5 6 8 8 9 10 11 12 11 9 11 10 10 11 10 9 7 5 7 6 5 4 1 1 2 2
6 5 2 1 1 1 5 6 1 2 2 5 2 2 4 3 2 2 1 2 3 5 6 7 7 8 7 7 9 9 9 9 8 7 6 6 9 10 10 8 6 8 6 6 5 3 2 1 1
3 6 1 2 2 2 4 6 1 2 1 4 2 1 4 4 2 1 1 2 3 3 5 5 6 7 10 8 8 10 12 11 11 8 8 6 4 6 7 7 8 6 5 6 6 5 4 2 1
6 4 7 4 3 2 4 2 4 5 7 3 3 6 4 4 4 6 7 7 6 5 5 5 5 5 6 6 5 6 5 6 5 5 5 4 6 5 6 6 7 7 6 5 6 5 2 4 2
2 5 5 4 4 1 2 3 3 1 5 6 4 9 9 9 9 9 8 6 7 7 5 5 5 4 5 6 3 2 2 2 3 4 4 4 4 3 3 2 2 1 3 1 2 2 3 1 2
0 4 3 1 3 1 3 3 6 4 8 7 5 4 5 9 9 8 8 8 9 8 7 7 8 6 6 3 4 4 3 3 2 2 4 3 3 4 3 3 3 3 2 2 2 2 2 1 3
2 3 2 6 6 5 1 6 4 9 9 6 9 10 10 9 9 7 8 7 8 9 10 10 8 6 5 6 4 3 5 4 3 2 3 3 3 5 4 3 3 3 3 3 3 3 2 2 3
2 2 6 7 8 3 4 2 2 6 9 9 9 10 9 11 10 9 13 12 12 11 12 12 10 8 5 5 5 3 3 6 3 3 5 6 4 4 5 4 4 3 4 3 4 4 4 3 1
1 5 7 6 2 4 7 1 7 8 9 9 9 8 10 11 12 11 10 10 11 10 12 14 13 13 1 4 4 3 2 1 2 3 4 5 5 5 5 4 4 5 4 4 3 2 2 3 2
3 4 4 3 2 1 4 8 6 4 10 7 8 7 8 11 9 10 11 10 11 11 13 13 12 13 11 5 4 4 3 2 2 2 2 4 3 4 4 4 4 4 4 5 4 2 2 3 3
5 3 4 9 1 2 3 5 7 4 8 7 6 7 8 9 12 13 12 11 11 11 12 13 14 14 12 11 9 10 10 7 6 5 5 6 4 3 2 3 3 4 3 3 4 2 2 3 2
6 4 4 6 1 3 2 7 10 8 4 8 8 7 8 9 11 11 12 12 11 11 11 12 11 15 11 7 8 9 10 9 9 10 10 12 8 6 4 2 1 2 2 2 3 3 2 1 2
3 4 5 3 4 1 7 6 13 6 6 8 7 7 7 8 6 8 9 10 11 14 15 14 15 14 11 7 4 6 7 7 10 10 16 14 13 12 8 5 5 3 1 2 3 2 3 1 1
2 1 6 6 5 5 7 9 5 7 4 6 8 7 7 5 7 9 10 11 12 11 11 14 14 14 11 8 4 4 3 5 7 9 13 15 15 15 12 10 7 6 4 5 2 1 1 1 3
5 7 4 8 4 2 3 7 2 5 8 11 8 6 6 6 6 7 8 9 8 11 10 12 12 13 11 10 6 5 4 4 7 10 9 12 14 14 14 13 10 9 5 4 2 2 2 3 0
5 8 8 5 4 4 2 6 6 5 5 5 5 6 6 6 5 5 5 6 7 7 7 10 11 12 12 10 12 14 9 7 4 4 6 8 12 13 12 11 11 11 8 9 6 3 2 1 4
7 5 6 3 4 3 4 2 7 7 5 6 6 4 5 5 5 5 5 5 6 6 7 6 10 13 11 12 12 9 11 6 5 7 11 11 10 12 13 12 11 10 7 7 9 9 7 3 3
5 5 6 5 3 1 9 9 5 5 4 5 6 8 7 5 6 5 4 4 5 5 6 6 10 10 9 12 13 12 12 10 9 9 8 7 6 8 12 11 10 9 9 9 7 6 7 6 4
4 6 3 5 2 7 4 2 8 3 4 9 14 9 8 7 6 6 6 5 5 6 5 6 8 9 6 9 10 9 9 8 9 6 5 6 5 6 9 9 9 7 7 8 8 7 7 6 5
7 8 7 8 4 5 1 7 5 2 4 9 12 10 7 7 6 6 6 5 5 6 6 6 6 7 6 8 8 7 7 5 4 5 4 4 4 4 5 6 7 8 7 7 7 4 4 6 4
6 5 3 6 3 3 5 3 4 4 4 5 8 7 8 7 7 7 7 6 6 6 5 6 6 6 6 6 6 7 6 7 6 6 5 3 4 5 6 6 7 8 8 7 7 4 5 5 5
4 7 4 3 1 5 5 7 6 7 10 8 8 10 8 7 8 7 6 6 4 5 4 5 5 6 5 6 6 5 6 6 5 4 6 5 4 4 5 5 5 6 6 6 7 7 7 6 5
3 3 3 4 5 6 2 9 4 10 13 15 14 11 11 10 9 8 7 6 6 5 5 5 5 5 4 5 4 5 5 6 6 5 5 6 5 6 7 8 9 9 9 7 6 5 7 8 9
2 7 7 7 7 3 3 15 4 7 12 11 10 11 8 8 8 7 7 7 7 6 6 6 4 4 4 3 3 3 4 4 5 5 5 6 6 6 7 7 8 9 10 10 10 11 10 11 11
Wind_Direction
323 333 78 42 55 64 328 17 302 329 342 224 91 98 165 187 157 206 290 197 144 150 166 178 182 180 175 168 160 158 157 156 152 145 137 130 123 115 114 121 119 116 104 94 84 79 73 62 52
325 29 43 77 81 64 282 263 242 259 325 33 68 78 37 283 275 295 65 195 172 154 167 174 179 180 175 167 165 166 166 165 163 158 152 147 144 137 124 132 111 99 96 96 93 85 64 49 38
277 45 77 86 103 155 194 233 255 321 352 10 28 81 168 287 300 231 257 166 144 156 165 175 176 181 174 171 169 172 173 171 169 169 168 160 148 147 143 130 111 101 94 90 90 81 69 46 35
40 11 37 79 133 231 219 216 228 350 348 37 16 9 321 326 306 262 99 136 144 163 167 175 180 181 178 177 178 177 179 179 178 179 180 170 147 139 137 140 136 138 98 70 83 74 59 44 34
35 56 55 82 289 277 264 248 174 88 47 321 9 320 294 342 295 76 126 147 167 172 172 171 185 186 184 181 186 187 188 190 190 187 179 168 162 156 147 161 139 101 107 343 91 78 64 49 38
39 85 58 131 276 284 281 294 97 66 353 323 16 338 270 340 348 284 170 179 186 171 176 181 195 193 190 187 190 191 192 196 202 196 189 179 179 180 156 198 210 223 228 247 194 121 74 56 49
103 78 170 178 297 327 333 334 62 105 334 262 206 333 294 320 231 215 210 159 182 188 177 185 192 199 196 195 194 191 190 198 209 207 202 195 180 172 160 179 197 216 221 233 214 185 122 98 73
100 89 93 270 285 329 329 342 44 92 268 327 163 259 293 289 307 115 76 295 201 210 201 192 188 189 194 198 194 194 194 196 205 202 198 194 165 170 164 173 205 219 212 210 205 206 208 185 92
118 61 160 227 136 277 337 15 289 296 281 347 279 264 278 317 20 54 3 310 298 273 243 212 197 196 195 193 196 197 199 201 199 206 211 196 175 173 174 171 191 212 204 208 210 213 215 158 16
84 109 213 215 183 242 314 325 345 7 341 299 324 309 322 339 5 350 343 321 313 304 293 278 260 215 200 202 194 197 210 201 201 204 203 189 171 164 168 177 191 197 170 202 216 225 148 66 355
152 187 197 245 202 183 245 271 175 241 309 235 305 306 332 3 26 29 22 4 323 308 321 301 244 249 230 213 183 181 199 192 175 197 183 180 150 141 150 153 168 147 179 160 159 103 84 15 333
46 245 228 244 161 289 265 307 304 197 240 64 4 320 47 50 33 16 11 2 353 349 336 333 311 226 211 209 201 186 181 183 174 193 179 157 142 150 151 164 176 160 162 188 155 140 148 242 315
193 286 283 278 277 231 277 254 248 266 260 57 73 49 43 38 25 11 2 360 348 352 337 334 329 274 208 191 179 182 204 197 190 194 193 159 163 158 158 185 175 174 157 177 174 176 178 218 292
198 275 282 283 269 270 220 251 106 286 75 66 67 53 39 38 19 11 10 359 356 344 343 336 335 329 219 190 167 175 171 208 172 190 200 181 173 170 176 171 187 194 174 180 181 183 190 214 261
356 333 329 261 282 217 159 50 231 244 73 83 67 50 39 30 27 22 4 1 352 345 339 356 351 343 312 164 143 137 115 120 188 210 207 193 180 187 178 181 180 194 172 159 153 168 161 192 202
21 44 351 287 169 31 128 263 270 312 98 87 75 56 49 35 27 13 8 6 2 0 3 357 360 3 7 43 93 98 87 80 1 313 270 237 218 182 177 178 197 183 172 170 158 172 206 255 248
2 240 219 316 313 127 145 252 270 48 102 116 99 67 49 28 21 14 10 9 7 5 5 12 12 11 14 34 47 51 52 41 22 22 5 6 329 294 213 206 201 164 160 185 155 158 180 208 238
205 216 243 241 307 21 273 273 278 301 137 129 100 71 60 50 23 11 10 9 12 17 19 22 24 22 8 19 57 56 48 38 38 36 30 25 13 5 335 333 24 134 144 135 136 168 136 164 221
163 190 220 256 262 21 249 240 267 310 100 111 112 103 84 59 15 23 24 23 23 22 25 26 26 17 29 22 15 34 44 33 37 33 28 23 24 22 23 8 4 3 191 154 128 106 191 209 126
205 266 262 279 269 162 275 278 289 28 32 120 115 93 84 70 35 26 19 20 25 25 27 31 32 30 34 34 15 41 40 40 47 27 31 27 29 24 26 22 21 27 11 9 12 116 91 279 184
195 199 211 221 326 288 322 290 224 54 79 81 76 96 84 87 69 33 25 16 18 28 19 39 31 33 36 43 48 39 53 43 30 23 26 25 29 27 27 27 24 20 20 13 356 330 282 309 282
214 201 208 217 116 223 113 270 296 139 107 81 107 111 117 109 81 58 43 42 28 16 19 40 41 39 29 37 66 67 62 58 9 20 24 31 29 28 26 24 29 29 24 17 359 347 290 235 278
227 144 165 159 154 87 291 324 257 131 163 173 167 156 138 123 110 92 74 56 33 32 33 35 58 55 41 43 54 66 69 60 42 30 34 25 22 26 22 24 26 26 22 15 12 5 351 317 289
133 98 52 49 88 221 218 186 254 195 178 167 168 163 165 154 138 120 101 79 70 43 44 50 65 58 55 62 62 67 69 61 53 38 38 23 15 16 17 15 20 22 19 13 5 1 4 349 322
85 86 338 339 359 236 108 144 243 305 314 183 168 173 176 171 169 154 128 100 77 71 64 71 68 65 51 70 71 71 75 72 66 49 39 26 18 14 8 7 10 16 9 10 4 8 9 3 351
180 160 160 226 208 251 120 236 257 330 335 137 149 169 166 181 183 168 154 144 120 101 87 86 86 87 69 73 71 63 64 66 66 60 43 31 22 358 357 2 357 5 7 9 360 4 354 356 351
186 185 174 110 64 39 226 288 239 116 69 128 154 160 192 194 191 181 173 168 147 132 123 121 108 93 77 81 77 66 61 58 49 38 36 22 355 358 356 354 353 353 356 355 356 348 343 345 330
154 160 91 356 242 247 271 266 227 210 195 190 187 201 200 205 202 186 180 174 160 150 130 109 106 105 100 91 84 81 66 58 51 41 28 12 346 348 345 343 340 338 340 340 342 341 334 334 326
127 200 89 143 153 189 260 260 236 204 176 190 204 202 199 201 198 190 184 178 174 169 164 157 135 121 105 94 85 81 66 48 35 29 10 360 346 350 350 344 341 341 340 337 329 324 313 319 312
241 206 165 188 234 236 160 261 5 163 182 183 196 208 208 202 194 188 183 180 180 186 180 180 172 164 175 161 131 102 80 46 19 1 352 348 340 336 331 329 332 330 328 328 329 324 318 311 306